GEFSMA_500_meanwind_300.txt.gz
Wind_Speed
1 2 2 3 3 4 4 5 5 5 4 4 3 3 4 4 4 4 4 5 5 5 6 6 7 7 7 7 7 7 8 8 8 8 8 8 8 8 8 8 8 8 8
1 2 3 3 4 4 4 5 5 4 4 4 4 4 4 5 5 5 4 5 6 6 6 7 8 8 8 8 8 8 8 8 8 8 9 9 9 9 9 8 8 9 9
3 4 4 4 4 4 5 5 4 4 5 5 4 4 5 6 6 5 6 6 7 8 8 8 9 9 9 9 9 9 9 9 9 10 10 10 10 10 10 9 10 9 9
4 5 4 4 5 5 6 6 6 5 5 5 5 5 5 5 6 6 6 6 8 9 9 9 9 9 9 10 10 10 10 10 10 10 10 10 10 10 10 11 11 11 11
5 5 4 5 5 6 6 7 6 5 5 5 5 5 5 5 6 7 7 8 9 9 8 9 9 8 9 10 10 10 9 9 9 9 9 9 10 11 11 11 12 12 12
5 5 6 6 6 6 6 6 6 5 5 5 5 6 6 6 7 7 8 8 8 9 9 9 9 9 9 9 9 9 9 9 9 9 9 9 9 10 10 11 12 13 12
6 6 6 7 7 7 6 6 6 6 6 6 6 6 7 7 7 7 8 8 9 9 9 9 9 9 10 10 9 10 10 10 9 9 8 8 9 9 10 10 11 12 12
6 7 7 8 8 7 7 6 7 7 8 8 8 8 8 8 8 8 8 9 10 10 9 9 9 9 10 11 10 10 11 10 10 9 10 9 10 11 11 11 11 12 13
6 7 8 8 8 7 7 7 8 8 9 9 9 9 8 8 9 9 9 9 10 10 11 10 10 11 10 11 10 10 11 11 11 11 11 11 12 12 12 12 12 12 13
7 7 8 9 9 9 8 8 9 9 9 10 10 10 10 10 10 10 10 10 10 10 10 10 11 11 10 10 10 10 10 11 11 12 13 13 13 13 13 14 14 14 13
7 8 9 9 9 9 9 9 10 10 10 11 11 11 11 11 11 11 10 10 11 11 11 11 11 11 12 12 11 11 11 11 12 13 13 13 14 14 14 15 15 15 15
8 9 9 9 9 9 9 10 11 11 11 12 12 12 12 12 12 12 12 11 11 11 11 12 12 12 13 12 12 11 12 12 13 14 14 15 15 15 15 15 15 16 16
9 10 10 10 10 9 10 11 12 12 13 13 13 13 13 13 13 13 13 13 12 12 12 12 13 13 13 12 13 13 13 14 14 14 15 16 15 16 16 16 16 17 17
11 11 11 11 11 11 12 13 14 14 14 14 14 14 14 14 14 14 14 14 14 14 13 13 13 13 14 14 14 15 15 16 16 16 16 16 17 17 18 17 17 17 18
12 12 12 12 13 13 13 14 15 15 15 15 15 15 15 15 15 15 15 15 15 14 14 14 15 15 15 16 16 16 16 17 17 17 17 17 17 18 18 17 18 18 18
12 13 13 14 14 14 15 15 15 15 15 15 16 15 15 15 16 16 16 15 16 16 16 16 16 16 16 17 18 18 17 17 17 17 18 18 18 18 19 18 18 18 18
13 14 15 15 15 15 16 16 15 16 16 17 17 17 17 17 16 17 17 16 16 17 17 17 18 18 18 19 18 18 18 18 17 18 18 19 19 19 19 19 19 20 19
15 15 16 16 16 16 16 16 17 17 18 18 18 18 18 18 17 18 18 18 18 18 18 18 18 19 19 19 19 18 18 19 19 19 19 19 19 19 20 20 20 19 19
17 17 17 18 18 18 17 18 18 19 19 19 19 19 19 19 19 19 19 19 19 19 19 19 19 19 19 19 19 19 20 20 20 21 21 20 20 20 20 20 20 19 19
18 19 19 19 19 19 20 20 20 20 21 21 21 21 21 20 20 20 20 20 20 20 20 21 21 21 21 21 20 20 20 20 21 21 21 21 20 20 20 20 20 20 20
20 20 20 20 21 22 22 22 22 22 22 22 23 23 23 23 23 22 21 21 21 22 22 23 23 23 23 22 21 21 21 21 21 22 21 21 20 20 21 20 20 20 20
21 21 21 22 22 23 23 23 23 23 23 23 24 24 24 24 24 23 23 23 23 23 23 24 24 24 22 22 22 22 22 22 22 21 22 21 21 20 20 20 20 20 20
23 23 23 23 24 24 24 24 24 24 24 25 25 25 25 25 24 24 24 24 24 24 25 25 25 24 24 24 23 23 24 24 23 22 22 22 22 22 22 21 20 20 21
25 25 25 25 25 25 26 26 26 26 26 27 26 26 26 26 25 25 25 24 24 25 26 26 26 26 25 25 25 25 25 24 24 23 24 24 24 23 23 22 21 22 22
27 27 27 27 27 27 27 27 28 28 28 28 27 27 27 27 26 26 26 26 25 25 26 26 27 26 26 26 26 26 25 25 25 25 24 24 24 24 24 23 24 24 24
30 30 29 29 28 28 28 29 29 29 29 29 28 28 28 28 27 27 27 27 26 26 26 26 27 27 27 26 26 26 26 26 26 26 25 25 25 25 25 25 25 25 25

GEFSMA_500_meanwind_306.txt.gz
Wind_Speed
4 5 5 4 4 4 4 4 3 2 2 3 3 3 3 4 4 5 5 5 5 5 6 6 6 6 7 7 7 6 6 7 7 7 7 7 7 7 8 9 9 10 10
4 4 4 4 4 4 4 4 3 3 2 3 4 4 5 4 4 5 5 6 5 6 7 7 7 7 8 8 9 9 8 8 8 8 8 8 9 9 9 9 9 9 10
4 4 4 4 4 4 4 4 4 4 3 4 4 5 4 4 4 4 5 6 7 7 7 7 7 8 8 8 8 8 8 8 8 8 9 9 9 10 10 10 9 9 10
4 4 4 4 4 4 4 4 5 4 4 5 5 5 5 4 4 4 6 7 8 8 8 8 7 7 8 8 7 7 8 8 8 8 8 9 9 9 9 10 10 9 10
4 4 4 4 4 4 4 4 5 4 5 5 5 5 5 5 4 5 7 8 8 8 8 8 8 9 8 8 7 8 8 9 9 9 9 9 9 9 9 9 9 9 9
4 4 4 4 4 4 5 5 5 5 6 6 5 5 6 6 6 7 8 8 8 9 9 9 10 9 9 9 9 10 10 9 9 9 10 10 10 10 9 10 9 9 10
4 4 4 4 5 4 4 5 5 6 6 6 5 5 6 7 7 7 8 8 9 9 9 10 11 10 9 10 10 10 10 11 10 10 10 10 11 11 11 11 10 10 11
5 4 4 4 5 5 4 5 5 6 6 6 6 6 7 7 8 7 7 8 8 8 9 10 10 10 10 10 10 11 11 11 12 12 12 12 12 12 12 12 12 11 11
5 5 5 6 5 5 5 6 6 6 7 6 6 7 7 7 7 7 8 8 9 9 9 10 11 11 11 11 11 11 12 12 13 13 14 14 14 14 14 13 13 13 12
5 5 6 6 6 6 6 7 7 7 7 7 7 8 8 9 9 8 8 9 9 10 10 10 11 11 12 12 12 12 12 13 13 14 14 14 15 15 15 14 14 14 14
5 6 6 7 7 7 7 8 8 8 8 8 8 8 9 9 10 10 10 11 11 11 11 11 12 12 13 13 14 13 13 14 14 15 15 15 15 16 15 14 15 15 15
6 6 7 7 7 8 8 9 9 9 9 9 9 10 10 10 11 11 11 11 12 12 12 12 13 13 13 14 15 15 14 14 16 16 15 15 15 16 15 16 16 16 16
7 7 7 8 8 9 9 9 9 9 10 10 10 11 11 11 12 12 13 13 14 13 13 14 14 14 15 15 15 15 15 15 15 15 15 14 15 15 15 16 17 17 17
9 9 8 9 10 9 9 10 10 10 11 11 11 11 12 13 13 14 14 14 14 13 13 14 14 14 15 16 16 16 16 15 15 14 15 15 15 16 16 17 18 18 19
9 10 10 10 10 10 10 10 10 10 11 11 12 12 13 13 14 14 15 14 13 13 13 14 14 14 15 16 16 17 17 16 15 15 16 16 16 17 18 18 18 19 20
10 10 10 10 10 11 12 11 11 11 12 12 12 12 13 13 14 15 14 14 14 14 14 14 14 15 15 16 17 17 17 17 17 17 17 16 17 17 19 19 19 19 20
11 11 11 11 12 12 13 13 13 13 13 13 13 13 13 14 14 15 15 16 16 16 16 15 15 15 15 16 17 18 18 18 18 18 18 17 18 18 18 19 19 19 20
13 13 13 13 14 15 15 15 15 15 15 15 15 15 15 15 15 16 16 17 17 17 18 17 17 17 17 17 17 18 18 18 18 18 18 18 18 19 19 19 19 20 20
15 15 15 16 17 17 18 18 18 18 18 18 18 17 17 17 17 17 18 18 19 19 19 19 18 18 18 18 19 19 19 19 18 19 18 19 19 20 20 20 20 21 21
16 17 17 18 18 19 19 19 20 20 19 19 19 19 19 19 19 19 19 19 20 20 20 20 20 20 19 19 20 20 20 20 20 20 20 20 21 21 21 21 21 22 22
17 18 19 19 20 20 21 21 21 21 21 21 21 21 21 20 20 20 20 20 20 20 20 20 21 21 21 20 20 21 21 21 21 22 22 22 22 22 22 22 22 22 22
20 21 21 22 22 23 23 23 22 22 22 23 23 23 23 22 21 21 22 21 21 21 21 21 22 22 22 22 22 22 22 22 22 22 23 23 23 23 23 23 23 23 23
23 24 24 24 24 25 25 25 24 24 25 25 25 25 24 24 24 23 23 23 23 23 23 23 23 24 24 24 24 24 24 23 23 23 24 24 24 24 25 25 25 25 24
26 27 26 26 27 26 26 26 26 26 27 27 27 26 25 25 25 24 24 24 24 24 24 25 25 25 25 25 25 25 25 25 25 24 25 25 25 26 27 26 26 26 26
29 29 29 28 27 27 28 28 28 28 28 27 27 27 26 26 25 25 25 24 24 25 26 26 26 26 26 26 26 26 26 26 26 26 27 27 27 28 27 27 27 28 28
30 30 29 29 29 29 30 30 29 29 29 28 27 27 27 26 26 26 25 25 25 25 25 26 26 26 27 27 27 27 27 27 27 27 27 28 29 29 29 28 28 29 29

GEFSMA_500_meanwind_312.txt.gz
Wind_Speed
3 3 2 2 2 2 2 3 3 3 3 3 4 4 3 4 3 4 5 6 7 8 8 8 7 7 8 9 9 8 8 8 9 9 9 9 9 9 9 9 9 9 8
3 3 2 2 1 1 2 3 3 3 3 4 5 4 5 4 5 6 6 7 8 8 8 8 8 8 9 9 9 9 9 8 9 10 9 9 9 9 9 10 9 9 9
3 2 1 2 2 2 3 3 3 3 4 4 5 5 6 6 7 8 8 8 8 9 9 9 9 9 9 9 10 10 10 10 9 10 10 10 9 9 9 10 10 9 9
2 2 2 2 2 3 3 4 4 4 5 5 6 6 7 7 8 9 8 8 9 9 10 10 10 9 10 10 11 11 11 11 10 10 10 10 10 10 10 10 10 10 10
2 2 3 2 3 4 4 5 5 6 6 6 7 6 7 8 10 9 9 9 10 10 10 11 10 10 9 10 11 11 11 11 11 11 11 11 10 10 10 10 10 11 11
3 3 3 3 4 4 5 6 6 7 7 8 7 7 8 9 10 9 9 10 10 10 10 10 10 10 10 10 11 12 13 12 12 13 12 13 12 11 11 12 12 12 12
2 3 3 4 4 5 6 6 7 8 9 8 7 7 8 9 10 10 10 10 10 10 10 10 11 11 10 11 11 13 13 13 13 13 13 13 13 13 12 13 14 13 13
3 3 4 5 5 6 7 8 9 9 9 8 8 8 8 8 9 10 10 10 10 11 11 11 11 12 12 12 13 13 13 14 14 14 15 15 15 15 14 14 14 14 14
4 4 6 6 6 7 9 9 9 9 9 8 8 9 9 9 10 10 10 10 11 11 11 11 12 13 13 13 14 15 15 14 14 15 15 16 16 16 16 15 14 14 14
5 5 6 7 8 8 9 9 9 9 9 10 9 9 10 10 11 11 11 11 12 13 13 13 13 13 13 14 15 16 15 15 15 15 16 16 16 16 16 15 15 15 15
6 7 7 8 9 10 10 10 10 10 10 11 11 11 11 11 12 12 12 13 13 13 14 14 14 13 14 14 14 15 15 16 15 15 16 16 17 17 17 17 17 17 17
7 8 8 9 10 10 10 11 11 11 11 12 12 12 13 13 13 14 14 14 15 14 14 14 14 14 15 15 15 16 16 16 16 15 15 16 17 17 17 18 18 18 18
8 9 9 9 10 10 11 11 12 12 12 12 13 13 14 14 14 15 15 15 16 16 15 14 14 15 15 15 15 16 16 16 17 16 16 16 17 17 18 19 19 19 18
10 10 11 10 10 11 11 11 12 12 12 13 13 13 14 15 15 15 16 16 16 16 16 15 15 15 15 16 16 16 16 17 17 17 18 18 17 17 18 19 20 20 19
12 12 12 12 12 12 12 12 13 13 13 13 13 14 14 14 15 16 16 16 16 16 16 16 16 16 16 16 17 17 17 18 17 18 18 18 18 19 19 19 19 19 19
13 13 14 13 13 14 14 14 14 15 14 15 15 15 15 16 16 17 17 17 17 17 16 17 17 18 17 17 17 17 17 18 18 18 18 18 18 18 18 19 19 20 19
15 15 15 15 15 16 16 16 16 16 16 17 17 18 17 18 18 18 18 18 18 18 18 18 19 19 19 18 18 18 18 19 19 19 18 18 18 19 19 19 19 20 20
16 17 17 17 17 18 17 18 18 19 19 19 20 20 20 20 20 20 20 20 20 19 19 20 20 21 21 20 20 20 20 20 20 20 20 19 19 20 20 20 20 21 21
18 18 18 19 19 19 19 20 20 21 21 21 21 21 22 22 22 22 22 21 21 21 21 21 21 22 22 22 21 20 20 21 21 21 22 22 22 22 22 22 22 22 22
19 20 20 21 21 21 21 22 22 22 22 23 23 23 24 24 24 24 24 23 23 23 22 22 22 23 23 23 22 21 21 22 22 23 22 22 23 23 23 23 24 24 24
21 22 22 22 22 22 22 23 24 24 24 24 24 24 25 25 25 25 25 25 25 25 24 24 24 23 23 23 23 22 22 23 23 24 23 23 24 24 24 25 25 25 25
24 23 23 23 23 24 24 25 25 25 25 25 25 25 26 26 25 25 26 26 26 26 25 25 25 23 23 24 24 24 24 24 24 24 24 25 25 25 25 26 26 26 26
25 24 25 25 25 26 26 26 27 27 27 27 27 27 26 26 26 27 27 27 27 26 26 26 26 25 25 25 26 25 25 25 25 25 26 26 25 25 26 26 26 27 28
26 27 27 27 27 27 27 28 28 29 29 28 28 27 27 28 28 28 27 28 28 27 27 27 27 26 26 27 28 27 27 27 27 27 27 27 26 27 26 26 27 27 28
28 28 28 29 29 29 29 30 30 30 28 28 29 29 29 28 29 29 29 29 29 29 29 29 28 28 28 28 29 30 29 29 29 29 29 29 28 28 28 27 28 28 28
30 30 30 31 31 31 31 31 32 31 30 30 30 29 29 29 29 29 30 30 30 30 30 29 29 29 30 30 30 31 31 30 30 30 29 29 29 29 28 28 28 28 28

GEFSMA_500_meanwind_318.txt.gz
Wind_Speed
1 1 1 1 1 1 1 1 1 2 2 2 3 3 5 5 5 5 5 6 7 7 8 8 8 9 9 8 8 9 9 10 10 9 9 9 9 10 10 10 10 9 8
1 1 1 1 1 1 2 3 3 2 3 3 3 5 6 6 6 7 7 8 8 9 9 9 9 9 10 9 10 10 9 10 10 10 9 9 9 10 11 11 10 10 9
0 1 1 1 2 2 3 3 2 3 4 4 5 6 7 8 8 8 9 9 9 9 10 10 10 9 10 11 10 10 10 10 10 10 10 10 10 10 11 11 11 10 10
1 1 1 1 2 3 3 3 2 3 4 4 5 7 8 8 9 9 10 10 10 10 10 10 10 10 11 11 10 10 10 11 11 11 11 11 11 11 11 11 11 10 10
1 1 1 2 3 3 4 4 4 4 5 6 7 7 8 9 10 10 10 10 10 11 11 10 10 10 11 11 11 10 11 12 12 12 11 11 12 12 12 11 11 11 12
1 2 3 3 4 4 4 5 5 6 7 7 8 9 10 10 10 11 11 11 11 11 11 11 10 10 11 12 12 11 11 12 12 12 12 12 12 13 12 12 13 13 13
2 2 3 3 4 5 5 6 6 7 8 8 9 9 10 10 10 10 11 11 11 11 11 11 11 11 12 12 12 12 13 13 13 13 13 13 13 13 13 13 14 15 14
4 4 4 4 5 6 7 7 7 8 8 8 9 10 10 10 10 10 11 12 12 12 12 12 12 12 12 13 13 13 12 13 14 14 13 13 13 13 14 15 15 15 15
5 5 5 6 7 8 8 9 9 9 9 10 10 10 11 11 11 11 12 12 12 13 13 13 13 13 13 14 14 14 14 14 14 14 14 14 15 14 14 16 16 16 16
6 6 7 8 8 9 9 9 10 10 10 10 10 11 11 11 12 12 12 13 13 14 14 13 13 14 14 15 14 14 15 15 14 14 15 15 15 15 15 15 16 18 18
7 7 8 8 9 9 9 10 10 11 11 11 11 12 12 13 13 13 13 14 14 14 14 14 14 15 15 15 14 15 15 15 15 15 16 15 15 15 15 15 16 17 19
7 7 7 8 8 8 9 10 11 11 11 12 12 13 13 14 14 14 14 14 14 14 14 14 14 15 15 16 15 15 15 16 16 16 16 16 16 15 16 16 16 17 18
9 9 9 10 10 10 11 12 12 12 12 12 13 13 13 14 14 14 14 15 15 15 15 15 15 14 15 16 16 16 17 17 17 16 16 16 16 16 16 16 17 17 17
10 11 12 12 13 13 13 13 14 14 14 14 13 14 14 14 15 15 15 15 15 15 15 15 16 16 16 16 16 18 18 18 18 18 18 17 17 17 17 17 17 16 17
12 13 14 14 14 14 14 14 14 15 15 14 14 15 15 16 16 16 16 16 16 17 16 17 17 18 18 17 17 18 19 19 19 19 19 19 18 18 18 17 17 17 17
13 14 15 16 16 15 15 16 16 16 16 16 16 16 17 17 17 18 18 18 18 19 18 18 19 20 20 20 20 20 20 19 20 20 20 19 19 19 19 18 18 18 19
15 15 16 16 16 16 16 17 18 18 18 18 18 19 19 19 19 19 19 20 20 20 20 20 20 20 21 21 21 20 20 20 21 20 20 20 20 20 20 20 20 20 21
18 17 17 18 18 18 19 19 19 19 20 20 20 20 20 21 21 21 22 22 22 22 22 21 21 22 22 22 23 23 22 22 22 22 22 21 20 21 21 21 22 22 23
19 19 19 20 20 21 21 21 20 21 21 21 21 21 22 23 23 23 24 23 23 23 23 23 23 23 24 24 25 25 25 24 24 23 23 22 22 22 22 23 23 23 24
21 21 21 22 22 23 23 23 22 22 22 23 23 23 24 24 24 25 25 25 25 25 25 25 25 25 26 26 26 26 26 25 25 24 24 24 24 24 24 24 24 25 25
23 24 24 24 24 24 24 24 24 24 24 24 24 25 25 26 26 26 27 27 27 27 27 26 26 26 27 27 27 27 27 27 26 26 26 26 26 26 26 26 26 26 26
25 25 26 26 26 25 25 25 25 26 26 26 26 26 27 27 27 27 27 28 28 28 29 29 29 29 29 29 29 28 28 28 27 27 27 28 28 27 28 28 28 28 27
27 27 27 27 27 27 27 27 27 27 28 28 28 28 29 29 29 29 29 29 29 29 30 30 31 30 30 30 30 29 29 29 29 29 29 29 29 29 29 29 29 29 29
29 29 29 29 29 29 29 29 29 29 30 30 30 30 30 29 29 29 29 30 30 30 31 31 31 31 32 32 31 31 31 30 30 30 30 30 30 30 30 30 30 29 29
30 29 29 29 30 30 30 31 31 31 31 31 32 32 31 31 31 31 31 31 31 31 31 31 31 32 32 32 32 32 32 31 31 31 32 32 32 32 32 31 31 30 30
31 31 30 30 30 31 31 32 32 32 32 32 32 32 32 32 32 32 33 32 32 31 31 31 31 31 32 32 33 33 32 32 31 31 32 32 32 32 32 31 32 31 31